Kezdőlap
METAR-TAF:

METAR-TAF

Repülőterek :

Shenandoah Municipal Airport

Shenandoah, Iowa, Amerikai Egyesült Államok

földrajzi szélesség: 40-45N, földrajzi hosszúság: 095-25W, magasság: 296 m

Jelenlegi meteorológiai megfigyelések

A jelentés 17 perccel ezelõtt készült, 02:35 UTC
Szélcsend
Hőmérséklet 0°C
Páratartalom 59%
Légköri nyomás 1021 hPa
Látótávolság: 16.1 km
Derült ég

METAR: KSDA 280235Z AUTO 00000KT 10SM CLR M00/M07 A3016 RMK AO2

Idő: 20:52 (02:52 UTC)


TAF: hiányzik

Meteorológiai megfigyelések és előrejelzések több, mint 4000 repülőtéren (METAR és TAF jelentéseket).

A térképen piros és sárga pontok jelzik az elérhető meteorológiai állomásokat.

Mozgassa az egeret a pont fölött, hogy megjelenjen az állomás neve.

Azután kattintson az időjárási megfigyelések és előrejelzések megtekintéséhez.

A térkép megváltoztatása: kattintson a fekete keresztel jelölt zöld gombra ráközelítéshez, a vonallal jelölt zöld gombra távolításhoz, vagy a zöld nyilakra a szomszédos térképek eléréséhez.


METAR-TAF: